This is the latest recevied weather packets stored in our database for station/object K3SV. If no packets are shown the sender has not sent any weather packets the latest 10 day(s).
| Time | Temp. | Humidity | Pressure | Rain* | Wind** | Luminosity | Snow |
|---|---|---|---|---|---|---|---|
| 1778164574 | 28.89° C | 54% | 1016.5 hPa | 0 mm | - | 503 W/m² | - |
| 1778164272 | 28.33° C | 54% | 1016.4 hPa | 0 mm | - | 491 W/m² | - |
| 1778163967 | 28.33° C | 53% | 1016.3 hPa | 0 mm | - | 476 W/m² | - |
| 1778163665 | 27.78° C | 56% | 1016.5 hPa | 0 mm | - | 466 W/m² | - |
| 1778163360 | 27.78° C | 61% | 1016.3 hPa | 0 mm | - | 448 W/m² | - |
| 1778163057 | 27.78° C | 61% | 1016.2 hPa | 0 mm | - | 438 W/m² | - |
| 1778162754 | 27.78° C | 66% | 1016.4 hPa | 0 mm | - | 421 W/m² | - |
| 1778162451 | 26.67° C | 69% | 1016.3 hPa | 0 mm | - | 411 W/m² | - |
| 1778162148 | 26.67° C | 70% | 1016.3 hPa | 0 mm | - | 394 W/m² | - |
| 1778161845 | 26.67° C | 69% | 1016 hPa | 0 mm | - | 385 W/m² | - |
| 1778161542 | 26.67° C | 70% | 1016.1 hPa | 0 mm | - | 368 W/m² | - |
| 1778161237 | 26.67° C | 72% | 1016.4 hPa | 0 mm | - | 355 W/m² | - |
| 1778160934 | 26.11° C | 73% | 1016.3 hPa | 0 mm | - | 338 W/m² | - |
| 1778160632 | 26.11° C | 75% | 1016.4 hPa | 0 mm | - | 326 W/m² | - |
| 1778160328 | 25.56° C | 77% | 1016.5 hPa | 0 mm | - | 307 W/m² | - |
| 1778160025 | 25.56° C | 78% | 1016.2 hPa | 0 mm | - | 296 W/m² | - |
| 1778159722 | 25.56° C | 79% | 1016.3 hPa | 0 mm | - | 277 W/m² | - |
| 1778159419 | 25.56° C | 79% | 1016.1 hPa | 0 mm | - | 259 W/m² | - |
| 1778159116 | 25° C | 80% | 1016.1 hPa | 0 mm | - | 241 W/m² | - |
| 1778158814 | 25° C | 81% | 1016.1 hPa | 0 mm | - | 262 W/m² | - |
| 1778158512 | 24.44° C | 82% | 1016 hPa | 0 mm | - | 273 W/m² | - |
| 1778158209 | 24.44° C | 84% | 1015.9 hPa | 0 mm | - | 270 W/m² | - |
| 1778157906 | 23.89° C | 84% | 1016 hPa | 0 mm | - | 264 W/m² | - |
| 1778157604 | 23.89° C | 84% | 1015.7 hPa | 0 mm | - | 252 W/m² | - |
| 1778157301 | 23.89° C | 86% | 1015.6 hPa | 0 mm | - | 221 W/m² | - |
* Rain latest hour (hover to see other rain measurements)
** Current wind speed in m/s (hover to see current wind gust speed)